Showing default

IRIDE FM4, 66698

Orbit data source: Space-Track

IRIDE FM4, 66698 is an Italian payload satellite in SSO that was launched on Fri, 28 Nov 2025 UTC via an FALCON 9 launch vehicle from the Air Force Western Test Range (AFWTR). Payload-class satellites include a variety of spacecraft equipped with specific instruments for various scientific and technological missions. These include communications satellites like Starlink; space stations such as the ISS; scientific satellites like the Hubble; Earth observation satellites from companies like Planet Labs, Umbra, and HawkEye 360; GPS; miniature CubeSats for education and research; and military/defense satellites.

Loading next visibility...
Identifier
66698, 2025-276AJ
Orbit
SSO
Country
Flag of ITIT
Related business
Manufacturer
OHB-I
Mission
Operational Commercial Technology
Bus & Motor
EAGLET, Unknown motor
Mass
25 kg wet, 25 kg dry
Launch date (UTC)
2025-11-28 (6 months ago)
Launch vehicle
FALCON 9
Launch site
Air Force Western Test Range (AFWTR)
Object type
Payload
Rocket body
Debris
Shape & HBR
Box + 2 Pan, 1.0 m
Radar Cross Section
0.368 m²

Expand to show TLE details & history
Last TLE update: 14 hours ago

TLE from 14 hours ago
0 IRIDE FM4
1 66698U 25276AJ  26144.64582767  .00004827  00000-0  23087-3 0  9993
2 66698  97.4188 218.5145 0005727  92.7783 267.4107 15.19439574 26842
Epoch: 2026-05-24T15:29Z
TLE epoch observation values (Epoch: 2026-05-24T15:29:59.510Z)
Latitude
-0.00007°
Longitude
103.77156°
Altitude
510.803 km
Speed
7.608 km/s
True Right ascension
14h 34m 03s
True Declination
0° 00' 00"
Sunlit
Object was in full shadow at epoch
Visualization orbit readout
Latitude
Unknown
Longitude
Unknown
Altitude
Unknown
Speed
Unknown
Apparent Right ascension
Unknown
Apparent Declination
Unknown
Sunlit
N/A
Visualization observer readout
Local Sidereal Time
14:46:15
Azimuth
Unknown
Elevation
Unknown
Doppler factor
Unknown
Orbital elements
Apogee altitude
508.442 km
Perigee altitude
500.559 km
Semi-major axis
6,882.637 km
Eccentricity
0.00057
Inclination
97.4188°
RAAN
218.5145°
Arg. of periapsis
92.7783°
True anomaly
267.34514°
Mean anomaly
267.4107°
Eccentric anomaly
267.37792°
Mean motion
3.80111 °/min
Orbital period
94.71 mins
BSTAR
0.00023087
Loading maneuver chart data...
Computing Atmospheric mass density...
Loading historical data...
Loading historical data...
Loading historical data...
Loading historical data...
Loading historical data...
Loading historical data...
Loading historical data...

Documentation

Showing up to 5 results
|